Location: *
(49.5667°N, 1.3667°W)
Time: 18:17:54
(UTC+00:00)

Meteor 1-21 Rocket - Pass Details

Date: 20 September 2019
Orbit: 834 x 907 km, 81.2° (Epoch: 22 October)

Event Time Altitude Azimuth Distance (km) Brightness Sun altitude
Rises 20:45:01 0° 350° (N) 3,522 8.1 -24.7°
Reaches altitude 10° 20:47:31 10° 354° (N) 2,585 7.2 -25.0°
Maximum altitude 20:53:21 58° 74° (ENE) 1,051 4.4 -25.8°
Enters shadow 20:53:28 58° 79° (ENE) 1,052 4.4 -25.8°
